owner,sensor,date,latitude,longitude,air_pressure(mBar),qcFlag 
COMPS,ioos:station:USF.COMPS:C10:1,2019-01-01T00:05:00Z,27.1690,-82.9260,1020.29,1111122 
COMPS,ioos:station:USF.COMPS:C10:1,2019-01-01T00:35:00Z,27.1690,-82.9260,1020.21,1111122 
COMPS,ioos:station:USF.COMPS:C10:1,2019-01-01T01:05:00Z,27.1690,-82.9260,1020.28,1111122 
COMPS,ioos:station:USF.COMPS:C10:1,2019-01-01T01:35:00Z,27.1690,-82.9260,1020.28,1111122 
COMPS,ioos:station:USF.COMPS:C10:1,2019-01-01T02:05:00Z,27.1690,-82.9260,1020.35,1111122 
COMPS,ioos:station:USF.COMPS:C10:1,2019-01-01T02:35:00Z,27.1690,-82.9260,1020.68,1111122 
COMPS,ioos:station:USF.COMPS:C10:1,2019-01-01T03:05:00Z,27.1690,-82.9260,1020.83,1111122 
COMPS,ioos:station:USF.COMPS:C10:1,2019-01-01T03:35:00Z,27.1690,-82.9260,1020.91,1111122 
COMPS,ioos:station:USF.COMPS:C10:1,2019-01-01T04:05:00Z,27.1690,-82.9260,1020.84,1111122 
COMPS,ioos:station:USF.COMPS:C10:1,2019-01-01T04:35:00Z,27.1690,-82.9260,1020.91,1111122 
COMPS,ioos:station:USF.COMPS:C10:1,2019-01-01T05:05:00Z,27.1690,-82.9260,1020.87,1111122 
COMPS,ioos:station:USF.COMPS:C10:1,2019-01-01T05:35:00Z,27.1690,-82.9260,1020.83,1111122 
COMPS,ioos:station:USF.COMPS:C10:1,2019-01-01T06:05:00Z,27.1690,-82.9260,1020.78,1111122 
COMPS,ioos:station:USF.COMPS:C10:1,2019-01-01T06:35:00Z,27.1690,-82.9260,1020.83,1111122 
COMPS,ioos:station:USF.COMPS:C10:1,2019-01-01T07:05:00Z,27.1690,-82.9260,1020.62,1111122 
COMPS,ioos:station:USF.COMPS:C10:1,2019-01-01T07:35:00Z,27.1690,-82.9260,1020.42,1111122 
COMPS,ioos:station:USF.COMPS:C10:1,2019-01-01T08:05:00Z,27.1690,-82.9260,1020.09,1111122 
COMPS,ioos:station:USF.COMPS:C10:1,2019-01-01T08:35:00Z,27.1690,-82.9260,1020.15,1111122 
COMPS,ioos:station:USF.COMPS:C10:1,2019-01-01T09:05:00Z,27.1690,-82.9260,1020.0,1111122 
COMPS,ioos:station:USF.COMPS:C10:1,2019-01-01T09:35:00Z,27.1690,-82.9260,1019.95,1111122 
COMPS,ioos:station:USF.COMPS:C10:1,2019-01-01T10:05:00Z,27.1690,-82.9260,1019.97,1111122 
COMPS,ioos:station:USF.COMPS:C10:1,2019-01-01T10:35:00Z,27.1690,-82.9260,1020.25,1111122 
COMPS,ioos:station:USF.COMPS:C10:1,2019-01-01T11:05:00Z,27.1690,-82.9260,1020.34,1111122 
COMPS,ioos:station:USF.COMPS:C10:1,2019-01-01T11:35:00Z,27.1690,-82.9260,1020.58,1111122 
COMPS,ioos:station:USF.COMPS:C10:1,2019-01-01T12:05:00Z,27.1690,-82.9260,1020.81,1111122 
COMPS,ioos:station:USF.COMPS:C10:1,2019-01-01T12:35:00Z,27.1690,-82.9260,1021.03,1111122 
COMPS,ioos:station:USF.COMPS:C10:1,2019-01-01T13:05:00Z,27.1690,-82.9260,1021.43,1111122 
COMPS,ioos:station:USF.COMPS:C10:1,2019-01-01T13:35:00Z,27.1690,-82.9260,1021.68,1111122 
COMPS,ioos:station:USF.COMPS:C10:1,2019-01-01T14:05:00Z,27.1690,-82.9260,1021.93,1111122 
COMPS,ioos:station:USF.COMPS:C10:1,2019-01-01T14:35:00Z,27.1690,-82.9260,1022.24,1111122 
COMPS,ioos:station:USF.COMPS:C10:1,2019-01-01T15:05:00Z,27.1690,-82.9260,1022.5,1111122 
COMPS,ioos:station:USF.COMPS:C10:1,2019-01-01T15:35:00Z,27.1690,-82.9260,1022.5,1111122 
COMPS,ioos:station:USF.COMPS:C10:1,2019-01-01T16:05:00Z,27.1690,-82.9260,1022.14,1111122 
COMPS,ioos:station:USF.COMPS:C10:1,2019-01-01T16:35:00Z,27.1690,-82.9260,1021.67,1111122 
COMPS,ioos:station:USF.COMPS:C10:1,2019-01-01T17:05:00Z,27.1690,-82.9260,1021.39,1111122 
COMPS,ioos:station:USF.COMPS:C10:1,2019-01-01T17:35:00Z,27.1690,-82.9260,1020.98,1111122 
COMPS,ioos:station:USF.COMPS:C10:1,2019-01-01T18:05:00Z,27.1690,-82.9260,1020.91,1111122 
COMPS,ioos:station:USF.COMPS:C10:1,2019-01-01T18:35:00Z,27.1690,-82.9260,1020.52,1111122 
COMPS,ioos:station:USF.COMPS:C10:1,2019-01-01T19:05:00Z,27.1690,-82.9260,1020.02,1111122 
COMPS,ioos:station:USF.COMPS:C10:1,2019-01-01T19:35:00Z,27.1690,-82.9260,1019.93,1111122 
COMPS,ioos:station:USF.COMPS:C10:1,2019-01-01T20:05:00Z,27.1690,-82.9260,1020.23,1111122 
COMPS,ioos:station:USF.COMPS:C10:1,2019-01-01T20:35:00Z,27.1690,-82.9260,1020.14,1111122 
COMPS,ioos:station:USF.COMPS:C10:1,2019-01-01T21:05:00Z,27.1690,-82.9260,1020.28,1111122 
COMPS,ioos:station:USF.COMPS:C10:1,2019-01-01T21:35:00Z,27.1690,-82.9260,1020.59,1111122 
COMPS,ioos:station:USF.COMPS:C10:1,2019-01-01T22:05:00Z,27.1690,-82.9260,1020.71,1111122 
COMPS,ioos:station:USF.COMPS:C10:1,2019-01-01T22:35:00Z,27.1690,-82.9260,1020.71,1111122 
COMPS,ioos:station:USF.COMPS:C10:1,2019-01-01T23:05:00Z,27.1690,-82.9260,1020.96,1111122 
COMPS,ioos:station:USF.COMPS:C10:1,2019-01-01T23:35:00Z,27.1690,-82.9260,1021.14,1111122 
COMPS,ioos:station:USF.COMPS:C10:1,2019-01-02T00:05:00Z,27.1690,-82.9260,1021.48,1111122 
COMPS,ioos:station:USF.COMPS:C10:1,2019-01-02T00:35:00Z,27.1690,-82.9260,1021.59,1111122 
COMPS,ioos:station:USF.COMPS:C10:1,2019-01-02T01:05:00Z,27.1690,-82.9260,1021.64,1111122 
COMPS,ioos:station:USF.COMPS:C10:1,2019-01-02T01:35:00Z,27.1690,-82.9260,1021.58,1111122 
COMPS,ioos:station:USF.COMPS:C10:1,2019-01-02T02:05:00Z,27.1690,-82.9260,1021.64,1111122 
COMPS,ioos:station:USF.COMPS:C10:1,2019-01-02T02:35:00Z,27.1690,-82.9260,1021.66,1111122 
COMPS,ioos:station:USF.COMPS:C10:1,2019-01-02T03:05:00Z,27.1690,-82.9260,1021.6,1111122 
COMPS,ioos:station:USF.COMPS:C10:1,2019-01-02T03:35:00Z,27.1690,-82.9260,1021.54,1111122 
COMPS,ioos:station:USF.COMPS:C10:1,2019-01-02T04:05:00Z,27.1690,-82.9260,1021.29,1111122 
COMPS,ioos:station:USF.COMPS:C10:1,2019-01-02T04:35:00Z,27.1690,-82.9260,1021.11,1111122 
COMPS,ioos:station:USF.COMPS:C10:1,2019-01-02T05:05:00Z,27.1690,-82.9260,1021.15,1111122 
COMPS,ioos:station:USF.COMPS:C10:1,2019-01-02T05:35:00Z,27.1690,-82.9260,1020.97,1111122 
COMPS,ioos:station:USF.COMPS:C10:1,2019-01-02T06:05:00Z,27.1690,-82.9260,1020.93,1111122 
COMPS,ioos:station:USF.COMPS:C10:1,2019-01-02T06:35:00Z,27.1690,-82.9260,1021.06,1111122 
COMPS,ioos:station:USF.COMPS:C10:1,2019-01-02T07:05:00Z,27.1690,-82.9260,1021.04,1111122 
COMPS,ioos:station:USF.COMPS:C10:1,2019-01-02T07:35:00Z,27.1690,-82.9260,1020.88,1111122 
COMPS,ioos:station:USF.COMPS:C10:1,2019-01-02T08:05:00Z,27.1690,-82.9260,1020.69,1111122 
COMPS,ioos:station:USF.COMPS:C10:1,2019-01-02T08:35:00Z,27.1690,-82.9260,1020.64,1111122 
COMPS,ioos:station:USF.COMPS:C10:1,2019-01-02T09:05:00Z,27.1690,-82.9260,1020.44,1111122 
COMPS,ioos:station:USF.COMPS:C10:1,2019-01-02T09:35:00Z,27.1690,-82.9260,1020.31,1111122 
COMPS,ioos:station:USF.COMPS:C10:1,2019-01-02T12:05:00Z,27.1690,-82.9260,1021.63,1111122 
COMPS,ioos:station:USF.COMPS:C10:1,2019-01-02T12:35:00Z,27.1690,-82.9260,1021.89,1111122 
COMPS,ioos:station:USF.COMPS:C10:1,2019-01-02T13:05:00Z,27.1690,-82.9260,1022.12,1111122 
COMPS,ioos:station:USF.COMPS:C10:1,2019-01-02T13:35:00Z,27.1690,-82.9260,1022.42,1111122 
COMPS,ioos:station:USF.COMPS:C10:1,2019-01-02T14:05:00Z,27.1690,-82.9260,1022.53,1111122 
COMPS,ioos:station:USF.COMPS:C10:1,2019-01-02T14:35:00Z,27.1690,-82.9260,1023.24,1111122 
COMPS,ioos:station:USF.COMPS:C10:1,2019-01-02T15:05:00Z,27.1690,-82.9260,1022.95,1111122 
COMPS,ioos:station:USF.COMPS:C10:1,2019-01-02T15:35:00Z,27.1690,-82.9260,1022.66,1111122 
COMPS,ioos:station:USF.COMPS:C10:1,2019-01-02T16:05:00Z,27.1690,-82.9260,1022.23,1111122 
COMPS,ioos:station:USF.COMPS:C10:1,2019-01-02T16:35:00Z,27.1690,-82.9260,1021.89,1111122 
COMPS,ioos:station:USF.COMPS:C10:1,2019-01-02T17:05:00Z,27.1690,-82.9260,1021.28,1111122 
COMPS,ioos:station:USF.COMPS:C10:1,2019-01-02T17:35:00Z,27.1690,-82.9260,1020.72,1111122 
COMPS,ioos:station:USF.COMPS:C10:1,2019-01-02T18:05:00Z,27.1690,-82.9260,1020.19,1111122 
COMPS,ioos:station:USF.COMPS:C10:1,2019-01-02T18:35:00Z,27.1690,-82.9260,1019.76,1111122 
COMPS,ioos:station:USF.COMPS:C10:1,2019-01-02T19:05:00Z,27.1690,-82.9260,1019.22,1111122 
COMPS,ioos:station:USF.COMPS:C10:1,2019-01-02T19:35:00Z,27.1690,-82.9260,1019.0,1111122 
COMPS,ioos:station:USF.COMPS:C10:1,2019-01-02T20:05:00Z,27.1690,-82.9260,1018.89,1111122 
COMPS,ioos:station:USF.COMPS:C10:1,2019-01-02T20:35:00Z,27.1690,-82.9260,1018.83,1111122 
COMPS,ioos:station:USF.COMPS:C10:1,2019-01-02T21:05:00Z,27.1690,-82.9260,1018.84,1111122 
COMPS,ioos:station:USF.COMPS:C10:1,2019-01-02T21:35:00Z,27.1690,-82.9260,1018.8,1111122 
COMPS,ioos:station:USF.COMPS:C10:1,2019-01-02T22:05:00Z,27.1690,-82.9260,1018.99,1111122 
COMPS,ioos:station:USF.COMPS:C10:1,2019-01-02T22:35:00Z,27.1690,-82.9260,1019.0,1111122 
COMPS,ioos:station:USF.COMPS:C10:1,2019-01-02T23:05:00Z,27.1690,-82.9260,1018.69,1111122 
COMPS,ioos:station:USF.COMPS:C10:1,2019-01-02T23:35:00Z,27.1690,-82.9260,1018.92,1111122 
COMPS,ioos:station:USF.COMPS:C10:1,2019-01-03T00:05:00Z,27.1690,-82.9260,1019.23,1111122 
COMPS,ioos:station:USF.COMPS:C10:1,2019-01-03T00:35:00Z,27.1690,-82.9260,1019.48,1111122 
COMPS,ioos:station:USF.COMPS:C10:1,2019-01-03T01:05:00Z,27.1690,-82.9260,1019.35,1111122 
COMPS,ioos:station:USF.COMPS:C10:1,2019-01-03T01:35:00Z,27.1690,-82.9260,1019.12,1111122 
COMPS,ioos:station:USF.COMPS:C10:1,2019-01-03T02:05:00Z,27.1690,-82.9260,1019.13,1111122 
COMPS,ioos:station:USF.COMPS:C10:1,2019-01-03T02:35:00Z,27.1690,-82.9260,1018.95,1111122 
COMPS,ioos:station:USF.COMPS:C10:1,2019-01-03T04:05:00Z,27.1690,-82.9260,1018.59,1111122 
COMPS,ioos:station:USF.COMPS:C10:1,2019-01-03T04:35:00Z,27.1690,-82.9260,1018.15,1111122 
COMPS,ioos:station:USF.COMPS:C10:1,2019-01-03T05:05:00Z,27.1690,-82.9260,1017.98,1111122 
COMPS,ioos:station:USF.COMPS:C10:1,2019-01-03T05:35:00Z,27.1690,-82.9260,1018.37,1111122 
COMPS,ioos:station:USF.COMPS:C10:1,2019-01-03T06:05:00Z,27.1690,-82.9260,1018.11,1111122 
COMPS,ioos:station:USF.COMPS:C10:1,2019-01-03T06:35:00Z,27.1690,-82.9260,1018.13,1111122 
COMPS,ioos:station:USF.COMPS:C10:1,2019-01-03T07:05:00Z,27.1690,-82.9260,1018.0,1111122 
COMPS,ioos:station:USF.COMPS:C10:1,2019-01-03T07:35:00Z,27.1690,-82.9260,1017.55,1111122 
COMPS,ioos:station:USF.COMPS:C10:1,2019-01-03T08:05:00Z,27.1690,-82.9260,1017.46,1111122 
COMPS,ioos:station:USF.COMPS:C10:1,2019-01-03T08:35:00Z,27.1690,-82.9260,1017.37,1111122 
COMPS,ioos:station:USF.COMPS:C10:1,2019-01-03T09:05:00Z,27.1690,-82.9260,1017.56,1111122 
COMPS,ioos:station:USF.COMPS:C10:1,2019-01-03T09:35:00Z,27.1690,-82.9260,1016.87,1111122 
COMPS,ioos:station:USF.COMPS:C10:1,2019-01-03T10:05:00Z,27.1690,-82.9260,1016.87,1111122 
COMPS,ioos:station:USF.COMPS:C10:1,2019-01-03T10:35:00Z,27.1690,-82.9260,1017.51,1111122 
COMPS,ioos:station:USF.COMPS:C10:1,2019-01-03T11:05:00Z,27.1690,-82.9260,1017.87,1111122 
COMPS,ioos:station:USF.COMPS:C10:1,2019-01-03T11:35:00Z,27.1690,-82.9260,1017.68,1111122 
COMPS,ioos:station:USF.COMPS:C10:1,2019-01-03T12:05:00Z,27.1690,-82.9260,1017.99,1111122 
COMPS,ioos:station:USF.COMPS:C10:1,2019-01-03T12:35:00Z,27.1690,-82.9260,1017.85,1111122 
COMPS,ioos:station:USF.COMPS:C10:1,2019-01-03T13:05:00Z,27.1690,-82.9260,1018.08,1111122 
COMPS,ioos:station:USF.COMPS:C10:1,2019-01-03T13:35:00Z,27.1690,-82.9260,1018.63,1111122 
COMPS,ioos:station:USF.COMPS:C10:1,2019-01-03T14:05:00Z,27.1690,-82.9260,1019.4,1111122 
COMPS,ioos:station:USF.COMPS:C10:1,2019-01-03T14:35:00Z,27.1690,-82.9260,1020.22,1111122 
COMPS,ioos:station:USF.COMPS:C10:1,2019-01-03T15:05:00Z,27.1690,-82.9260,1020.14,1111122 
COMPS,ioos:station:USF.COMPS:C10:1,2019-01-03T15:35:00Z,27.1690,-82.9260,1019.77,1111122 
COMPS,ioos:station:USF.COMPS:C10:1,2019-01-03T16:05:00Z,27.1690,-82.9260,1019.17,1111122 
COMPS,ioos:station:USF.COMPS:C10:1,2019-01-03T16:35:00Z,27.1690,-82.9260,1018.53,1111122 
COMPS,ioos:station:USF.COMPS:C10:1,2019-01-03T17:05:00Z,27.1690,-82.9260,1018.38,1111122 
COMPS,ioos:station:USF.COMPS:C10:1,2019-01-03T17:35:00Z,27.1690,-82.9260,1018.02,1111122 
COMPS,ioos:station:USF.COMPS:C10:1,2019-01-03T18:05:00Z,27.1690,-82.9260,1017.42,1111122 
COMPS,ioos:station:USF.COMPS:C10:1,2019-01-03T18:35:00Z,27.1690,-82.9260,1017.19,1111122 
COMPS,ioos:station:USF.COMPS:C10:1,2019-01-03T19:05:00Z,27.1690,-82.9260,1017.08,1111122 
COMPS,ioos:station:USF.COMPS:C10:1,2019-01-03T19:35:00Z,27.1690,-82.9260,1016.88,1111122 
COMPS,ioos:station:USF.COMPS:C10:1,2019-01-03T20:05:00Z,27.1690,-82.9260,1016.8,1111122 
COMPS,ioos:station:USF.COMPS:C10:1,2019-01-03T20:35:00Z,27.1690,-82.9260,1016.85,1111122 
COMPS,ioos:station:USF.COMPS:C10:1,2019-01-03T21:05:00Z,27.1690,-82.9260,1016.86,1111122 
COMPS,ioos:station:USF.COMPS:C10:1,2019-01-03T21:35:00Z,27.1690,-82.9260,1016.78,1111122 
COMPS,ioos:station:USF.COMPS:C10:1,2019-01-03T22:05:00Z,27.1690,-82.9260,1016.91,1111122 
COMPS,ioos:station:USF.COMPS:C10:1,2019-01-03T22:35:00Z,27.1690,-82.9260,1016.92,1111122 
COMPS,ioos:station:USF.COMPS:C10:1,2019-01-03T23:05:00Z,27.1690,-82.9260,1016.77,1111122 
COMPS,ioos:station:USF.COMPS:C10:1,2019-01-03T23:35:00Z,27.1690,-82.9260,1016.77,1111122 
COMPS,ioos:station:USF.COMPS:C10:1,2019-01-04T00:05:00Z,27.1690,-82.9260,1016.78,1111122 
COMPS,ioos:station:USF.COMPS:C10:1,2019-01-04T00:35:00Z,27.1690,-82.9260,1016.97,1111122 
COMPS,ioos:station:USF.COMPS:C10:1,2019-01-04T01:05:00Z,27.1690,-82.9260,1017.03,1111122 
COMPS,ioos:station:USF.COMPS:C10:1,2019-01-04T01:35:00Z,27.1690,-82.9260,1017.02,1111122 
COMPS,ioos:station:USF.COMPS:C10:1,2019-01-04T02:05:00Z,27.1690,-82.9260,1017.1,1111122 
COMPS,ioos:station:USF.COMPS:C10:1,2019-01-04T02:35:00Z,27.1690,-82.9260,1017.04,1111122 
COMPS,ioos:station:USF.COMPS:C10:1,2019-01-04T03:05:00Z,27.1690,-82.9260,1016.89,1111122 
COMPS,ioos:station:USF.COMPS:C10:1,2019-01-04T03:35:00Z,27.1690,-82.9260,1016.7,1111122 
COMPS,ioos:station:USF.COMPS:C10:1,2019-01-04T04:05:00Z,27.1690,-82.9260,1016.76,1111122 
COMPS,ioos:station:USF.COMPS:C10:1,2019-01-04T04:35:00Z,27.1690,-82.9260,1016.49,1111122 
COMPS,ioos:station:USF.COMPS:C10:1,2019-01-04T05:05:00Z,27.1690,-82.9260,1016.59,1111122 
COMPS,ioos:station:USF.COMPS:C10:1,2019-01-04T05:35:00Z,27.1690,-82.9260,1016.02,1111122 
COMPS,ioos:station:USF.COMPS:C10:1,2019-01-04T06:05:00Z,27.1690,-82.9260,1015.69,1111122 
COMPS,ioos:station:USF.COMPS:C10:1,2019-01-04T06:35:00Z,27.1690,-82.9260,1015.78,1111122 
COMPS,ioos:station:USF.COMPS:C10:1,2019-01-04T07:05:00Z,27.1690,-82.9260,1015.86,1111122 
COMPS,ioos:station:USF.COMPS:C10:1,2019-01-04T07:35:00Z,27.1690,-82.9260,1015.77,1111122 
COMPS,ioos:station:USF.COMPS:C10:1,2019-01-04T08:05:00Z,27.1690,-82.9260,1015.76,1111122 
COMPS,ioos:station:USF.COMPS:C10:1,2019-01-04T08:35:00Z,27.1690,-82.9260,1015.47,1111122 
COMPS,ioos:station:USF.COMPS:C10:1,2019-01-04T09:05:00Z,27.1690,-82.9260,1015.32,1111122 
COMPS,ioos:station:USF.COMPS:C10:1,2019-01-04T09:35:00Z,27.1690,-82.9260,1015.21,1111122 
COMPS,ioos:station:USF.COMPS:C10:1,2019-01-04T10:05:00Z,27.1690,-82.9260,1014.87,1111122 
COMPS,ioos:station:USF.COMPS:C10:1,2019-01-04T10:35:00Z,27.1690,-82.9260,1014.55,1111122 
COMPS,ioos:station:USF.COMPS:C10:1,2019-01-04T11:05:00Z,27.1690,-82.9260,1014.42,1111122 
COMPS,ioos:station:USF.COMPS:C10:1,2019-01-04T11:35:00Z,27.1690,-82.9260,1014.57,1111122 
COMPS,ioos:station:USF.COMPS:C10:1,2019-01-04T12:05:00Z,27.1690,-82.9260,1014.7,1111122 
COMPS,ioos:station:USF.COMPS:C10:1,2019-01-04T12:35:00Z,27.1690,-82.9260,1014.67,1111122 
COMPS,ioos:station:USF.COMPS:C10:1,2019-01-04T13:05:00Z,27.1690,-82.9260,1014.78,1111122 
COMPS,ioos:station:USF.COMPS:C10:1,2019-01-04T13:35:00Z,27.1690,-82.9260,1014.97,1111122 
COMPS,ioos:station:USF.COMPS:C10:1,2019-01-04T14:05:00Z,27.1690,-82.9260,1015.21,1111122 
COMPS,ioos:station:USF.COMPS:C10:1,2019-01-04T14:35:00Z,27.1690,-82.9260,1015.65,1111122 
COMPS,ioos:station:USF.COMPS:C10:1,2019-01-04T15:05:00Z,27.1690,-82.9260,1015.79,1111122 
COMPS,ioos:station:USF.COMPS:C10:1,2019-01-04T15:35:00Z,27.1690,-82.9260,1016.09,1111122 
COMPS,ioos:station:USF.COMPS:C10:1,2019-01-04T16:05:00Z,27.1690,-82.9260,1015.91,1111122 
COMPS,ioos:station:USF.COMPS:C10:1,2019-01-04T16:35:00Z,27.1690,-82.9260,1015.31,1111122 
COMPS,ioos:station:USF.COMPS:C10:1,2019-01-04T17:05:00Z,27.1690,-82.9260,1015.02,1111122 
COMPS,ioos:station:USF.COMPS:C10:1,2019-01-04T17:35:00Z,27.1690,-82.9260,1013.97,1111122 
COMPS,ioos:station:USF.COMPS:C10:1,2019-01-04T18:05:00Z,27.1690,-82.9260,1013.75,1111122 
COMPS,ioos:station:USF.COMPS:C10:1,2019-01-04T18:35:00Z,27.1690,-82.9260,1013.87,1111122 
COMPS,ioos:station:USF.COMPS:C10:1,2019-01-04T19:05:00Z,27.1690,-82.9260,1013.7,1111122 
COMPS,ioos:station:USF.COMPS:C10:1,2019-01-04T19:35:00Z,27.1690,-82.9260,1013.65,1111122 
COMPS,ioos:station:USF.COMPS:C10:1,2019-01-04T20:05:00Z,27.1690,-82.9260,1013.41,1111122 
COMPS,ioos:station:USF.COMPS:C10:1,2019-01-04T20:35:00Z,27.1690,-82.9260,1013.18,1111122 
COMPS,ioos:station:USF.COMPS:C10:1,2019-01-04T21:05:00Z,27.1690,-82.9260,1013.45,1111122 
COMPS,ioos:station:USF.COMPS:C10:1,2019-01-04T21:35:00Z,27.1690,-82.9260,1014.99,1111122 
COMPS,ioos:station:USF.COMPS:C10:1,2019-01-04T22:05:00Z,27.1690,-82.9260,1014.41,1111122 
COMPS,ioos:station:USF.COMPS:C10:1,2019-01-04T22:35:00Z,27.1690,-82.9260,1014.65,1111122 
COMPS,ioos:station:USF.COMPS:C10:1,2019-01-04T23:05:00Z,27.1690,-82.9260,1014.86,1111122 
COMPS,ioos:station:USF.COMPS:C10:1,2019-01-04T23:35:00Z,27.1690,-82.9260,1014.94,1111122 
COMPS,ioos:station:USF.COMPS:C10:1,2019-01-05T00:05:00Z,27.1690,-82.9260,1015.25,1111122 
COMPS,ioos:station:USF.COMPS:C10:1,2019-01-05T00:35:00Z,27.1690,-82.9260,1015.73,1111122 
COMPS,ioos:station:USF.COMPS:C10:1,2019-01-05T01:05:00Z,27.1690,-82.9260,1015.59,1111122 
COMPS,ioos:station:USF.COMPS:C10:1,2019-01-05T01:35:00Z,27.1690,-82.9260,1015.35,1111122 
COMPS,ioos:station:USF.COMPS:C10:1,2019-01-05T02:05:00Z,27.1690,-82.9260,1015.91,1111122 
COMPS,ioos:station:USF.COMPS:C10:1,2019-01-05T02:35:00Z,27.1690,-82.9260,1015.91,1111122 
COMPS,ioos:station:USF.COMPS:C10:1,2019-01-05T03:05:00Z,27.1690,-82.9260,1015.95,1111122 
COMPS,ioos:station:USF.COMPS:C10:1,2019-01-05T03:35:00Z,27.1690,-82.9260,1015.76,1111122 
COMPS,ioos:station:USF.COMPS:C10:1,2019-01-05T04:05:00Z,27.1690,-82.9260,1015.9,1111122 
COMPS,ioos:station:USF.COMPS:C10:1,2019-01-05T04:35:00Z,27.1690,-82.9260,1015.51,1111122 
COMPS,ioos:station:USF.COMPS:C10:1,2019-01-05T05:05:00Z,27.1690,-82.9260,1015.37,1111122 
COMPS,ioos:station:USF.COMPS:C10:1,2019-01-05T05:35:00Z,27.1690,-82.9260,1015.47,1111122 
COMPS,ioos:station:USF.COMPS:C10:1,2019-01-05T06:05:00Z,27.1690,-82.9260,1015.64,1111122 
COMPS,ioos:station:USF.COMPS:C10:1,2019-01-05T06:35:00Z,27.1690,-82.9260,1015.7,1111122 
COMPS,ioos:station:USF.COMPS:C10:1,2019-01-05T07:05:00Z,27.1690,-82.9260,1015.72,1111122 
COMPS,ioos:station:USF.COMPS:C10:1,2019-01-05T07:35:00Z,27.1690,-82.9260,1015.75,1111122 
COMPS,ioos:station:USF.COMPS:C10:1,2019-01-05T08:05:00Z,27.1690,-82.9260,1015.69,1111122 
COMPS,ioos:station:USF.COMPS:C10:1,2019-01-05T08:35:00Z,27.1690,-82.9260,1015.79,1111122 
COMPS,ioos:station:USF.COMPS:C10:1,2019-01-05T09:05:00Z,27.1690,-82.9260,1015.79,1111122 
COMPS,ioos:station:USF.COMPS:C10:1,2019-01-05T09:35:00Z,27.1690,-82.9260,1015.81,1111122 
COMPS,ioos:station:USF.COMPS:C10:1,2019-01-05T10:05:00Z,27.1690,-82.9260,1015.81,1111122 
COMPS,ioos:station:USF.COMPS:C10:1,2019-01-05T10:35:00Z,27.1690,-82.9260,1015.73,1111122 
COMPS,ioos:station:USF.COMPS:C10:1,2019-01-05T11:05:00Z,27.1690,-82.9260,1015.88,1111122 
COMPS,ioos:station:USF.COMPS:C10:1,2019-01-05T11:35:00Z,27.1690,-82.9260,1016.08,1111122 
COMPS,ioos:station:USF.COMPS:C10:1,2019-01-05T12:05:00Z,27.1690,-82.9260,1016.19,1111122 
COMPS,ioos:station:USF.COMPS:C10:1,2019-01-05T12:35:00Z,27.1690,-82.9260,1016.62,1111122 
COMPS,ioos:station:USF.COMPS:C10:1,2019-01-05T13:05:00Z,27.1690,-82.9260,1016.82,1111122 
COMPS,ioos:station:USF.COMPS:C10:1,2019-01-05T13:35:00Z,27.1690,-82.9260,1017.4,1111122 
COMPS,ioos:station:USF.COMPS:C10:1,2019-01-05T14:05:00Z,27.1690,-82.9260,1017.94,1111122 
COMPS,ioos:station:USF.COMPS:C10:1,2019-01-05T14:35:00Z,27.1690,-82.9260,1018.41,1111122 
COMPS,ioos:station:USF.COMPS:C10:1,2019-01-05T15:05:00Z,27.1690,-82.9260,1018.78,1111122 
COMPS,ioos:station:USF.COMPS:C10:1,2019-01-05T15:35:00Z,27.1690,-82.9260,1018.88,1111122 
COMPS,ioos:station:USF.COMPS:C10:1,2019-01-05T16:05:00Z,27.1690,-82.9260,1019.1,1111122 
COMPS,ioos:station:USF.COMPS:C10:1,2019-01-05T16:35:00Z,27.1690,-82.9260,1018.93,1111122 
COMPS,ioos:station:USF.COMPS:C10:1,2019-01-05T17:05:00Z,27.1690,-82.9260,1018.6,1111122 
COMPS,ioos:station:USF.COMPS:C10:1,2019-01-05T17:35:00Z,27.1690,-82.9260,1018.42,1111122 
COMPS,ioos:station:USF.COMPS:C10:1,2019-01-05T18:05:00Z,27.1690,-82.9260,1017.97,1111122 
COMPS,ioos:station:USF.COMPS:C10:1,2019-01-05T18:35:00Z,27.1690,-82.9260,1017.76,1111122 
COMPS,ioos:station:USF.COMPS:C10:1,2019-01-05T20:05:00Z,27.1690,-82.9260,1017.93,1111122 
COMPS,ioos:station:USF.COMPS:C10:1,2019-01-05T21:05:00Z,27.1690,-82.9260,1018.27,1111122 
COMPS,ioos:station:USF.COMPS:C10:1,2019-01-05T21:35:00Z,27.1690,-82.9260,1018.44,1111122 
COMPS,ioos:station:USF.COMPS:C10:1,2019-01-05T22:05:00Z,27.1690,-82.9260,1018.55,1111122 
COMPS,ioos:station:USF.COMPS:C10:1,2019-01-05T22:35:00Z,27.1690,-82.9260,1018.67,1111122 
COMPS,ioos:station:USF.COMPS:C10:1,2019-01-05T23:05:00Z,27.1690,-82.9260,1018.92,1111122 
COMPS,ioos:station:USF.COMPS:C10:1,2019-01-05T23:35:00Z,27.1690,-82.9260,1019.12,1111122 
COMPS,ioos:station:USF.COMPS:C10:1,2019-01-06T00:05:00Z,27.1690,-82.9260,1019.43,1111122 
COMPS,ioos:station:USF.COMPS:C10:1,2019-01-06T00:35:00Z,27.1690,-82.9260,1019.63,1111122 
COMPS,ioos:station:USF.COMPS:C10:1,2019-01-06T01:05:00Z,27.1690,-82.9260,1019.83,1111122 
COMPS,ioos:station:USF.COMPS:C10:1,2019-01-06T01:35:00Z,27.1690,-82.9260,1019.96,1111122 
COMPS,ioos:station:USF.COMPS:C10:1,2019-01-06T02:05:00Z,27.1690,-82.9260,1020.01,1111122 
COMPS,ioos:station:USF.COMPS:C10:1,2019-01-06T02:35:00Z,27.1690,-82.9260,1020.07,1111122 
COMPS,ioos:station:USF.COMPS:C10:1,2019-01-06T03:05:00Z,27.1690,-82.9260,1020.21,1111122 
COMPS,ioos:station:USF.COMPS:C10:1,2019-01-06T03:35:00Z,27.1690,-82.9260,1020.28,1111122 
COMPS,ioos:station:USF.COMPS:C10:1,2019-01-06T04:05:00Z,27.1690,-82.9260,1020.02,1111122 
COMPS,ioos:station:USF.COMPS:C10:1,2019-01-06T04:35:00Z,27.1690,-82.9260,1019.8,1111122 
COMPS,ioos:station:USF.COMPS:C10:1,2019-01-06T05:05:00Z,27.1690,-82.9260,1019.65,1111122 
COMPS,ioos:station:USF.COMPS:C10:1,2019-01-06T05:35:00Z,27.1690,-82.9260,1019.64,1111122 
COMPS,ioos:station:USF.COMPS:C10:1,2019-01-06T09:05:00Z,27.1690,-82.9260,1020.4,1111122 
COMPS,ioos:station:USF.COMPS:C10:1,2019-01-06T09:35:00Z,27.1690,-82.9260,1020.4,1111122 
COMPS,ioos:station:USF.COMPS:C10:1,2019-01-06T10:05:00Z,27.1690,-82.9260,1020.8,1111122 
COMPS,ioos:station:USF.COMPS:C10:1,2019-01-06T10:35:00Z,27.1690,-82.9260,1021.0,1111122 
COMPS,ioos:station:USF.COMPS:C10:1,2019-01-06T11:05:00Z,27.1690,-82.9260,1021.49,1111122 
COMPS,ioos:station:USF.COMPS:C10:1,2019-01-06T11:35:00Z,27.1690,-82.9260,1021.76,1111122 
COMPS,ioos:station:USF.COMPS:C10:1,2019-01-06T12:05:00Z,27.1690,-82.9260,1021.74,1111122 
COMPS,ioos:station:USF.COMPS:C10:1,2019-01-06T12:35:00Z,27.1690,-82.9260,1022.14,1111122 
COMPS,ioos:station:USF.COMPS:C10:1,2019-01-06T13:05:00Z,27.1690,-82.9260,1022.06,1111122 
COMPS,ioos:station:USF.COMPS:C10:1,2019-01-06T13:35:00Z,27.1690,-82.9260,1022.22,1111122 
COMPS,ioos:station:USF.COMPS:C10:1,2019-01-06T14:05:00Z,27.1690,-82.9260,1022.47,1111122 
COMPS,ioos:station:USF.COMPS:C10:1,2019-01-06T14:35:00Z,27.1690,-82.9260,1022.58,1111122 
COMPS,ioos:station:USF.COMPS:C10:1,2019-01-06T15:05:00Z,27.1690,-82.9260,1022.82,1111122 
COMPS,ioos:station:USF.COMPS:C10:1,2019-01-06T15:35:00Z,27.1690,-82.9260,1022.92,1111122 
COMPS,ioos:station:USF.COMPS:C10:1,2019-01-06T16:05:00Z,27.1690,-82.9260,1022.62,1111122 
COMPS,ioos:station:USF.COMPS:C10:1,2019-01-06T16:35:00Z,27.1690,-82.9260,1022.46,1111122 
COMPS,ioos:station:USF.COMPS:C10:1,2019-01-06T17:05:00Z,27.1690,-82.9260,1022.27,1111122 
COMPS,ioos:station:USF.COMPS:C10:1,2019-01-06T17:35:00Z,27.1690,-82.9260,1021.85,1111122 
COMPS,ioos:station:USF.COMPS:C10:1,2019-01-06T20:05:00Z,27.1690,-82.9260,1020.5,1111122 
COMPS,ioos:station:USF.COMPS:C10:1,2019-01-06T20:35:00Z,27.1690,-82.9260,1020.45,1111122 
COMPS,ioos:station:USF.COMPS:C10:1,2019-01-06T21:05:00Z,27.1690,-82.9260,1020.5,1111122 
COMPS,ioos:station:USF.COMPS:C10:1,2019-01-06T21:35:00Z,27.1690,-82.9260,1020.77,1111122 
COMPS,ioos:station:USF.COMPS:C10:1,2019-01-06T22:05:00Z,27.1690,-82.9260,1020.95,1111122 